Regional Weather Roundup
Issued by NWS

Home | Current Version | Previous Version | Graphics & Text | Print | Product List | Glossary On
Versions: 1 2 3 4 5 6 7 8 9 10 11 12 13 14 15 16 17 18 19 20 21 22 23 24 25 26 27
000
ASUS45 KPSR 240110
RWRAZ

ARIZONA HOURLY REGIONAL WEATHER ROUNDUP
NATIONAL WEATHER SERVICE PHOENIX AZ
600 PM MST THU FEB 23 2017

NOTE: FAIR INDICATES FEW OR NO CLOUDS BELOW 12,000 FEET WITH NO
SIGNIFICANT WEATHER AND/OR OBSTRUCTIONS TO VISIBILITY.

AZZ001>003-036-240200-
NORTHWEST ARIZONA

CITY           SKY/WX    TMP DP  RH WIND       PRES   REMARKS
BULLHEAD CITY  CLEAR     61   9  12 NW9       29.91R
KINGMAN        CLEAR     47 -19   6 W13       29.91R
$$

AZZ004>008-015-016-018-240200-
NORTH CENTRAL ARIZONA

CITY           SKY/WX    TMP DP  RH WIND       PRES   REMARKS
GRAND CANYON   PTCLDY    32   6  33 VRB7G16   29.82R WCI  26
WILLIAMS       CLEAR     32   3  29 W13G20    29.84S WCI  22
PRESCOTT       PTCLDY    40  20  44 SW14      29.86S WCI  32
FLAGSTAFF      MOCLDY    32  11  41 SW14G24   29.82R WCI  22
PAYSON         MOCLDY    41  21  45 SW13G20   29.91R
PAGE           MOCLDY    44  -8  11 W12G22    29.81R
$$

AZZ009>014-017-240200-
NORTHEAST ARIZONA

CITY           SKY/WX    TMP DP  RH WIND       PRES   REMARKS
WINSLOW        MOCLDY    45  18  34 W15       29.82R
SAINT JOHNS    PTCLDY    44   8  23 W20G30    29.78R
WINDOW ROCK    CLOUDY    35  12  38 W8        29.78R WCI  29
SHOW LOW       CLEAR     36  10  35 SW17G25   29.84R WCI  25
$$

AZZ023-240200-
GREATER PHOENIX AREA

CITY           SKY/WX    TMP DP  RH WIND       PRES   REMARKS
PHOENIX        PTCLDY    61  17  18 W20       29.89S
BUCKEYE        CLEAR     57  21  24 W9G16     29.92S
GLENDALE       PTCLDY    61  23  23 SW13      29.92R
LUKE AFB       CLEAR     60  23  24 SW10      29.89S
DEER VALLEY    CLEAR     57  24  28 SW17      29.89R
SCOTTSDALE     CLEAR     58  20  22 W10       29.91R
MESA-GATEWAY   CLEAR     59  21  23 W10       29.92R
CHANDLER       CLEAR     61  19  20 SW12      29.91R
$$

AZZ027-028-240200-
SOUTHWEST MARICOPA COUNTY AND PINAL COUNTY

CITY           SKY/WX    TMP DP  RH WIND       PRES   REMARKS
CASA GRANDE    NOT AVBL
GILA BEND      CLEAR     63  14  15 W10       29.91S
$$

AZZ503-504-507>509-240200-
SOUTHEAST ARIZONA

CITY           SKY/WX    TMP DP  RH WIND       PRES   REMARKS
TUCSON         CLEAR     61  13  15 NW10      29.92R
DAVIS-MONTHAN  CLEAR     59  12  15 NW14      29.91R
RYAN FIELD     CLEAR     61  16  17 W16G23    29.92S
NOGALES        CLEAR     57  10  15 W13       29.93R
SIERRA VISTA   PTCLDY    54   9  16 W17       29.92R
DOUGLAS        CLEAR     61   8  12 W21G30    29.87R
SAFFORD        CLEAR     56  10  16 NW26G35   29.81R
$$

AZZ020-021-025-026-031-240200-
SOUTHWEST ARIZONA

CITY           SKY/WX    TMP DP  RH WIND       PRES   REMARKS
YUMA           CLEAR     63  28  26 NW7       29.93S
$$

CAZ031-033-041-043-047-048-061-240200-
SOUTHERN CALIFORNIA

CITY           SKY/WX    TMP DP  RH WIND       PRES   REMARKS
DOWNTOWN L.A.  CLEAR     58  34  40 W12G17    30.03R
L.A. AIRPORT   PTCLDY    56  34  43 W18       30.05R
SAN DIEGO      PTCLDY    57  34  41 W8        30.08S
BURBANK        CLEAR     56  17  21 N15       30.02S
ONTARIO        PTCLDY    54  28  36 W13       30.00R
RIVERSIDE      CLEAR     54  30  40 W16       30.01R
PALM SPRINGS   CLEAR     63  29  27 NW16G24   29.94R
EL CENTRO NAS  PTCLDY    65  27  23 NE7       29.95R
IMPERIAL       CLEAR     66  30  26 N7        29.92S
BLYTHE         CLEAR     62  17  17 N8        29.94R
NEEDLES        CLEAR     62  16  16 W16       29.91R
$$

NVZ020-UTZ003-240200-
SOUTHERN NEVADA-UTAH

CITY           SKY/WX    TMP DP  RH WIND       PRES   REMARKS
LAS VEGAS      PTCLDY    53   5  14 VRB3      29.89S
SALT LAKE CITY CLOUDY    30  22  72 W10       29.86R WCI  21
$$

NMZ009-TXZ055-240200-
NEW MEXICO-WEST TEXAS

CITY           SKY/WX    TMP DP  RH WIND       PRES   REMARKS
ALBUQUERQUE    PTCLDY    50   7  17 W17G28    29.70R
EL PASO        CLEAR     68  12  11 W24G35    29.74R
$$


........................KEY........................
SKY/WX - SKY CONDITION/WEATHER
TMP    - TEMPERATURE IN FAHRENHEIT
DP     - DEW POINT IN FAHRENHEIT
RH     - RELATIVE HUMIDITY IN PERCENT
WIND   - DIRECTION AND SPEED IN MILES PER HOUR (MPH)
VRB    - VARIABLE WIND DIRECTION
PRES   - MEAN SEA LEVEL PRESSURE IN INCHES OF MERCURY
         F - FALLING PRESSURE   R - RISING PRESSURE
         S - STEADY PRESSURE
VSB    - VISIBILITY IN MILES
HX     - HEAT INDEX IN FAHRENHEIT
WCI    - WIND CHILL INDEX IN FAHRENHEIT
TC     - TEMPERATURE IN CELSIUS WHICH IS ALSO KNOWN AS
         TEMPERATURE IN CENTIGRADE
AFB    - AIR FORCE BASE
         LUKE AFB IS LUKE AIR FORCE BASE
         DAVIS-MONTHAN IS DAVIS-MONTHAN AIR FORCE BASE
NAS    - NAVAL AIR STATION
         EL CENTRO NAS IS EL CENTRO NAVAL AIR STATION
N/A    - NOT AVAILABLE





USA.gov is the U.S. government's official web portal to all federal, state and local government web resources and services.